Time,TemperatureF,DewpointF,PressureIn,WindDirection,WindDirectionDegrees,WindSpeedMPH,WindSpeedGustMPH,Humidity,HourlyPrecipIn,Conditions,Clouds,dailyrainin,SoftwareType,DateUTC
2013-03-22 00:00:00,60.0,42.0,29.91,SE,130,11.0,13.0,52,-99.99,,,-99.99,,2013-03-22 05:00:00,
2013-03-22 00:21:00,60.0,42.0,29.91,SE,130,11.0,13.0,52,-99.99,,,-99.99,,2013-03-22 05:21:00,
2013-03-22 00:32:00,60.0,42.0,29.91,SE,130,11.0,13.0,52,-99.99,,,-99.99,,2013-03-22 05:32:00,
2013-03-22 00:41:00,60.0,42.0,29.91,SE,130,11.0,13.0,52,-99.99,,,-99.99,,2013-03-22 05:41:00,
2013-03-22 00:52:00,60.0,42.0,29.91,SE,130,11.0,13.0,52,-99.99,,,-99.99,,2013-03-22 05:52:00,
2013-03-22 01:00:00,60.0,43.0,29.90,ESE,120,13.0,13.0,53,-99.99,,,-99.99,,2013-03-22 06:00:00,
2013-03-22 01:21:00,60.0,43.0,29.90,ESE,120,13.0,13.0,53,-99.99,,,-99.99,,2013-03-22 06:21:00,
2013-03-22 01:31:00,60.0,43.0,29.90,ESE,120,13.0,13.0,53,-99.99,,,-99.99,,2013-03-22 06:31:00,
2013-03-22 01:41:00,60.0,43.0,29.90,ESE,120,13.0,13.0,53,-99.99,,,-99.99,,2013-03-22 06:41:00,
2013-03-22 01:51:00,60.0,43.0,29.90,ESE,120,13.0,13.0,53,-99.99,,,-99.99,,2013-03-22 06:51:00,
2013-03-22 02:00:00,61.0,43.0,29.92,ESE,120,11.0,13.0,51,-99.99,,,-99.99,,2013-03-22 07:00:00,
2013-03-22 02:21:00,61.0,43.0,29.92,ESE,120,11.0,13.0,51,-99.99,,,-99.99,,2013-03-22 07:21:00,
2013-03-22 02:31:00,61.0,43.0,29.92,ESE,120,11.0,13.0,51,-99.99,,,-99.99,,2013-03-22 07:31:00,
2013-03-22 02:41:00,61.0,43.0,29.92,ESE,120,11.0,13.0,51,-99.99,,,-99.99,,2013-03-22 07:41:00,
2013-03-22 02:52:00,61.0,43.0,29.92,ESE,120,11.0,13.0,51,-99.99,,,-99.99,,2013-03-22 07:52:00,
2013-03-22 03:00:00,61.0,45.0,29.92,ESE,120,8.0,9.0,55,-99.99,,,-99.99,,2013-03-22 08:00:00,
2013-03-22 03:21:00,61.0,45.0,29.92,ESE,120,8.0,9.0,55,-99.99,,,-99.99,,2013-03-22 08:21:00,
2013-03-22 03:31:00,61.0,45.0,29.92,ESE,120,8.0,9.0,55,-99.99,,,-99.99,,2013-03-22 08:31:00,
2013-03-22 03:41:00,61.0,45.0,29.92,ESE,120,8.0,9.0,55,-99.99,,,-99.99,,2013-03-22 08:41:00,
2013-03-22 03:51:00,61.0,45.0,29.92,ESE,120,8.0,9.0,55,-99.99,,,-99.99,,2013-03-22 08:51:00,
2013-03-22 04:00:00,61.0,44.0,29.88,ESE,120,15.0,16.0,54,-99.99,,,-99.99,,2013-03-22 09:00:00,
2013-03-22 04:21:00,61.0,44.0,29.88,ESE,120,15.0,16.0,54,-99.99,,,-99.99,,2013-03-22 09:21:00,
2013-03-22 04:32:00,61.0,44.0,29.88,ESE,120,15.0,16.0,54,-99.99,,,-99.99,,2013-03-22 09:32:00,
2013-03-22 04:42:00,61.0,44.0,29.88,ESE,120,15.0,16.0,54,-99.99,,,-99.99,,2013-03-22 09:42:00,
2013-03-22 04:53:00,61.0,44.0,29.88,ESE,120,15.0,16.0,54,-99.99,,,-99.99,,2013-03-22 09:53:00,
2013-03-22 05:00:00,61.0,45.0,29.90,ESE,120,11.0,13.0,54,-99.99,,,-99.99,,2013-03-22 10:00:00,
2013-03-22 05:22:00,61.0,45.0,29.90,ESE,120,11.0,13.0,54,-99.99,,,-99.99,,2013-03-22 10:22:00,
2013-03-22 05:32:00,61.0,45.0,29.90,ESE,120,11.0,13.0,54,-99.99,,,-99.99,,2013-03-22 10:32:00,
2013-03-22 05:41:00,61.0,45.0,29.90,ESE,120,11.0,13.0,54,-99.99,,,-99.99,,2013-03-22 10:41:00,
2013-03-22 05:52:00,61.0,45.0,29.90,ESE,120,11.0,13.0,54,-99.99,,,-99.99,,2013-03-22 10:52:00,
2013-03-22 06:00:00,58.0,49.0,29.91,ENE,60,14.0,15.0,74,-99.99,,,-99.99,,2013-03-22 11:00:00,
2013-03-22 06:21:00,58.0,49.0,29.91,ENE,60,14.0,15.0,74,-99.99,,,-99.99,,2013-03-22 11:21:00,
2013-03-22 06:32:00,58.0,49.0,29.91,ENE,60,14.0,15.0,74,-99.99,,,-99.99,,2013-03-22 11:32:00,
2013-03-22 06:41:00,58.0,49.0,29.91,ENE,60,14.0,15.0,74,-99.99,,,-99.99,,2013-03-22 11:41:00,
2013-03-22 06:51:00,58.0,49.0,29.91,ENE,60,14.0,15.0,74,-99.99,,,-99.99,,2013-03-22 11:51:00,
2013-03-22 07:00:00,62.0,49.0,29.90,East,90,17.0,23.0,62,-99.99,,,-99.99,,2013-03-22 12:00:00,
2013-03-22 07:21:00,62.0,49.0,29.90,East,90,17.0,23.0,62,-99.99,,,-99.99,,2013-03-22 12:21:00,
2013-03-22 07:31:00,62.0,49.0,29.90,East,90,17.0,23.0,62,-99.99,,,-99.99,,2013-03-22 12:31:00,
2013-03-22 07:41:00,62.0,49.0,29.90,East,90,17.0,23.0,62,-99.99,,,-99.99,,2013-03-22 12:41:00,
2013-03-22 07:51:00,62.0,49.0,29.90,East,90,17.0,23.0,62,-99.99,,,-99.99,,2013-03-22 12:51:00,
2013-03-22 08:00:00,61.0,49.0,29.90,East,100,22.0,25.0,64,-99.99,,,-99.99,,2013-03-22 13:00:00,
2013-03-22 08:21:00,61.0,49.0,29.90,East,100,22.0,25.0,64,-99.99,,,-99.99,,2013-03-22 13:21:00,
2013-03-22 08:31:00,61.0,49.0,29.90,East,100,22.0,25.0,64,-99.99,,,-99.99,,2013-03-22 13:31:00,
2013-03-22 08:41:00,61.0,49.0,29.90,East,100,22.0,25.0,64,-99.99,,,-99.99,,2013-03-22 13:41:00,
2013-03-22 08:52:00,61.0,49.0,29.90,East,100,22.0,25.0,64,-99.99,,,-99.99,,2013-03-22 13:52:00,
2013-03-22 09:00:00,62.0,51.0,29.91,ESE,110,24.0,26.0,67,-99.99,,,-99.99,,2013-03-22 14:00:00,
2013-03-22 09:21:00,62.0,51.0,29.91,ESE,110,24.0,26.0,67,-99.99,,,-99.99,,2013-03-22 14:21:00,
2013-03-22 09:31:00,62.0,51.0,29.91,ESE,110,24.0,26.0,67,-99.99,,,-99.99,,2013-03-22 14:31:00,
2013-03-22 09:42:00,62.0,51.0,29.91,ESE,110,24.0,26.0,67,-99.99,,,-99.99,,2013-03-22 14:42:00,
2013-03-22 09:51:00,62.0,51.0,29.91,ESE,110,24.0,26.0,67,-99.99,,,-99.99,,2013-03-22 14:51:00,
2013-03-22 10:00:00,63.0,52.0,29.91,ESE,110,26.0,30.0,67,-99.99,,,-99.99,,2013-03-22 15:00:00,
2013-03-22 10:21:00,63.0,52.0,29.91,ESE,110,26.0,30.0,67,-99.99,,,-99.99,,2013-03-22 15:21:00,
2013-03-22 10:32:00,63.0,52.0,29.91,ESE,110,26.0,30.0,67,-99.99,,,-99.99,,2013-03-22 15:32:00,
2013-03-22 10:42:00,63.0,52.0,29.91,ESE,110,26.0,30.0,67,-99.99,,,-99.99,,2013-03-22 15:42:00,
2013-03-22 10:52:00,63.0,52.0,29.91,ESE,110,26.0,30.0,67,-99.99,,,-99.99,,2013-03-22 15:52:00,
2013-03-22 11:00:00,63.0,53.0,29.91,ESE,120,25.0,29.0,68,-99.99,,,-99.99,,2013-03-22 16:00:00,
2013-03-22 11:22:00,63.0,53.0,29.91,ESE,120,25.0,29.0,68,-99.99,,,-99.99,,2013-03-22 16:22:00,
2013-03-22 11:32:00,63.0,53.0,29.91,ESE,120,25.0,29.0,68,-99.99,,,-99.99,,2013-03-22 16:32:00,
2013-03-22 11:41:00,63.0,53.0,29.91,ESE,120,25.0,29.0,68,-99.99,,,-99.99,,2013-03-22 16:41:00,
2013-03-22 11:52:00,63.0,53.0,29.91,ESE,120,25.0,29.0,68,-99.99,,,-99.99,,2013-03-22 16:52:00,
2013-03-22 12:00:00,63.0,54.0,29.92,ESE,110,24.0,26.0,72,-99.99,,,-99.99,,2013-03-22 17:00:00,
2013-03-22 12:22:00,63.0,54.0,29.92,ESE,110,24.0,26.0,72,-99.99,,,-99.99,,2013-03-22 17:22:00,
2013-03-22 12:32:00,63.0,54.0,29.92,ESE,110,24.0,26.0,72,-99.99,,,-99.99,,2013-03-22 17:32:00,
2013-03-22 12:41:00,63.0,54.0,29.92,ESE,110,24.0,26.0,72,-99.99,,,-99.99,,2013-03-22 17:41:00,
2013-03-22 12:52:00,63.0,54.0,29.92,ESE,110,24.0,26.0,72,-99.99,,,-99.99,,2013-03-22 17:52:00,
2013-03-22 13:00:00,64.0,56.0,29.91,ESE,110,22.0,25.0,75,-99.99,,,-99.99,,2013-03-22 18:00:00,
2013-03-22 13:21:00,64.0,56.0,29.91,ESE,110,22.0,25.0,75,-99.99,,,-99.99,,2013-03-22 18:21:00,
2013-03-22 13:32:00,64.0,56.0,29.91,ESE,110,22.0,25.0,75,-99.99,,,-99.99,,2013-03-22 18:32:00,
2013-03-22 13:42:00,64.0,56.0,29.91,ESE,110,22.0,25.0,75,-99.99,,,-99.99,,2013-03-22 18:42:00,
2013-03-22 13:52:00,64.0,56.0,29.91,ESE,110,22.0,25.0,75,-99.99,,,-99.99,,2013-03-22 18:52:00,
2013-03-22 14:00:00,63.0,57.0,29.88,East,100,21.0,23.0,81,-99.99,,,-99.99,,2013-03-22 19:00:00,
2013-03-22 14:21:00,63.0,57.0,29.88,East,100,21.0,23.0,81,-99.99,,,-99.99,,2013-03-22 19:21:00,
2013-03-22 14:32:00,63.0,57.0,29.88,East,100,21.0,23.0,81,-99.99,,,-99.99,,2013-03-22 19:32:00,
2013-03-22 14:41:00,63.0,57.0,29.88,East,100,21.0,23.0,81,-99.99,,,-99.99,,2013-03-22 19:41:00,
2013-03-22 14:51:00,63.0,57.0,29.88,East,100,21.0,23.0,81,-99.99,,,-99.99,,2013-03-22 19:51:00,
2013-03-22 15:00:00,64.0,58.0,29.85,ESE,120,23.0,26.0,79,-99.99,,,-99.99,,2013-03-22 20:00:00,
2013-03-22 15:22:00,64.0,58.0,29.85,ESE,120,23.0,26.0,79,-99.99,,,-99.99,,2013-03-22 20:22:00,
2013-03-22 15:31:00,64.0,58.0,29.85,ESE,120,23.0,26.0,79,-99.99,,,-99.99,,2013-03-22 20:31:00,
2013-03-22 15:41:00,64.0,58.0,29.85,ESE,120,23.0,26.0,79,-99.99,,,-99.99,,2013-03-22 20:41:00,
2013-03-22 15:51:00,64.0,58.0,29.85,ESE,120,23.0,26.0,79,-99.99,,,-99.99,,2013-03-22 20:51:00,
2013-03-22 16:00:00,65.0,58.0,29.85,ESE,110,23.0,26.0,77,-99.99,,,-99.99,,2013-03-22 21:00:00,
2013-03-22 16:21:00,65.0,58.0,29.85,ESE,110,23.0,26.0,77,-99.99,,,-99.99,,2013-03-22 21:21:00,
2013-03-22 16:32:00,65.0,58.0,29.85,ESE,110,23.0,26.0,77,-99.99,,,-99.99,,2013-03-22 21:32:00,
2013-03-22 16:42:00,65.0,58.0,29.85,ESE,110,23.0,26.0,77,-99.99,,,-99.99,,2013-03-22 21:42:00,
2013-03-22 16:52:00,65.0,58.0,29.85,ESE,110,23.0,26.0,77,-99.99,,,-99.99,,2013-03-22 21:52:00,
2013-03-22 17:00:00,65.0,58.0,29.84,East,100,20.0,23.0,80,-99.99,,,-99.99,,2013-03-22 22:00:00,
2013-03-22 17:22:00,65.0,58.0,29.84,East,100,20.0,23.0,80,-99.99,,,-99.99,,2013-03-22 22:22:00,
2013-03-22 17:31:00,65.0,58.0,29.84,East,100,20.0,23.0,80,-99.99,,,-99.99,,2013-03-22 22:31:00,
2013-03-22 17:41:00,65.0,58.0,29.84,East,100,20.0,23.0,80,-99.99,,,-99.99,,2013-03-22 22:41:00,
2013-03-22 17:52:00,65.0,58.0,29.84,East,100,20.0,23.0,80,-99.99,,,-99.99,,2013-03-22 22:52:00,
2013-03-22 18:00:00,65.0,59.0,29.85,East,100,22.0,24.0,82,-99.99,,,-99.99,,2013-03-22 23:00:00,
2013-03-22 18:31:00,65.0,59.0,29.85,East,100,22.0,24.0,82,-99.99,,,-99.99,,2013-03-22 23:31:00,
2013-03-22 18:41:00,65.0,59.0,29.85,East,100,22.0,24.0,82,-99.99,,,-99.99,,2013-03-22 23:41:00,
2013-03-22 18:51:00,65.0,59.0,29.85,East,100,22.0,24.0,82,-99.99,,,-99.99,,2013-03-22 23:51:00,
2013-03-22 19:00:00,65.0,60.0,29.86,East,90,22.0,25.0,84,-99.99,,,-99.99,,2013-03-23 00:00:00,
2013-03-22 19:22:00,65.0,60.0,29.86,East,90,22.0,25.0,84,-99.99,,,-99.99,,2013-03-23 00:22:00,
2013-03-22 19:31:00,65.0,60.0,29.86,East,90,22.0,25.0,84,-99.99,,,-99.99,,2013-03-23 00:31:00,
2013-03-22 19:41:00,65.0,60.0,29.86,East,90,22.0,25.0,84,-99.99,,,-99.99,,2013-03-23 00:41:00,
2013-03-22 19:51:00,65.0,60.0,29.86,East,90,22.0,25.0,84,-99.99,,,-99.99,,2013-03-23 00:51:00,
2013-03-22 20:00:00,64.0,60.0,29.86,East,100,23.0,29.0,86,-99.99,,,-99.99,,2013-03-23 01:00:00,
2013-03-22 20:31:00,64.0,60.0,29.86,East,100,23.0,29.0,86,-99.99,,,-99.99,,2013-03-23 01:31:00,
2013-03-22 20:42:00,64.0,60.0,29.86,East,100,23.0,29.0,86,-99.99,,,-99.99,,2013-03-23 01:42:00,
2013-03-22 20:52:00,64.0,60.0,29.86,East,100,23.0,29.0,86,-99.99,,,-99.99,,2013-03-23 01:52:00,
2013-03-22 21:00:00,63.0,60.0,29.87,East,100,24.0,26.0,86,-99.99,,,-99.99,,2013-03-23 02:00:00,
2013-03-22 21:21:00,63.0,60.0,29.87,East,100,24.0,26.0,86,-99.99,,,-99.99,,2013-03-23 02:21:00,
2013-03-22 21:31:00,63.0,60.0,29.87,East,100,24.0,26.0,86,-99.99,,,-99.99,,2013-03-23 02:31:00,
2013-03-22 21:41:00,63.0,60.0,29.87,East,100,24.0,26.0,86,-99.99,,,-99.99,,2013-03-23 02:41:00,
2013-03-22 21:51:00,63.0,60.0,29.87,East,100,24.0,26.0,86,-99.99,,,-99.99,,2013-03-23 02:51:00,
2013-03-22 22:00:00,64.0,60.0,29.87,East,100,24.0,29.0,86,-99.99,,,-99.99,,2013-03-23 03:00:00,
2013-03-22 22:21:00,64.0,60.0,29.87,East,100,24.0,29.0,86,-99.99,,,-99.99,,2013-03-23 03:21:00,
2013-03-22 22:32:00,64.0,60.0,29.87,East,100,24.0,29.0,86,-99.99,,,-99.99,,2013-03-23 03:32:00,
2013-03-22 22:42:00,64.0,60.0,29.87,East,100,24.0,29.0,86,-99.99,,,-99.99,,2013-03-23 03:42:00,
2013-03-22 22:52:00,64.0,60.0,29.87,East,100,24.0,29.0,86,-99.99,,,-99.99,,2013-03-23 03:52:00,
2013-03-22 23:00:00,64.0,60.0,29.87,ESE,110,25.0,28.0,86,-99.99,,,-99.99,,2013-03-23 04:00:00,
2013-03-22 23:22:00,64.0,60.0,29.87,ESE,110,25.0,28.0,86,-99.99,,,-99.99,,2013-03-23 04:22:00,
2013-03-22 23:32:00,64.0,60.0,29.87,ESE,110,25.0,28.0,86,-99.99,,,-99.99,,2013-03-23 04:32:00,
2013-03-22 23:42:00,64.0,60.0,29.87,ESE,110,25.0,28.0,86,-99.99,,,-99.99,,2013-03-23 04:42:00,
2013-03-22 23:52:00,64.0,60.0,29.87,ESE,110,25.0,28.0,86,-99.99,,,-99.99,,2013-03-23 04:52:00,